N5JXS Weather Reports


Display with metric or nautical units.
time (UTC)temp
F
wind
direction
speed
MPH
gust
MPH
rain 1hr
in
rain 24hr
in
rain mn
in
humidity
%
barometer
mb
20260505140450 33 46 0.0 0.0 0.00 0.01 0.01 96 1016.5
20260505124903 38 270 1.0 1.0 0.00 0.01 0.01 96 1015.5
20260505124401 38 35 0.0 1.0 0.00 0.01 0.01 97 1015.4
20260505123856 38 16 0.0 0.0 0.00 0.01 0.01 97 1015.4
20260505123353 38 24 0.0 0.0 0.00 0.01 0.01 96 1015.3
20260505122849 38 9 0.0 0.0 0.00 0.01 0.01 97 1015.3
20260505122347 38 8 0.0 0.0 0.00 0.01 0.01 97 1014.9
20260505121843 38 39 0.0 0.0 0.00 0.01 0.01 97 1014.6
20260505121340 37 51 0.0 0.0 0.00 0.01 0.01 97 1014.8
20260505120836 38 52 1.0 1.0 0.00 0.01 0.01 97 1014.9
20260505120332 37 8 0.0 0.0 0.00 0.01 0.01 97 1015.0
20260505115831 38 3 0.0 0.0 0.00 0.01 0.01 97 1014.9
20260505115329 38 0 0.0 0.0 0.00 0.01 0.01 97 1014.6
20260505114826 38 12 0.0 0.0 0.00 0.01 0.01 97 1014.5
20260505114323 38 31 0.0 0.0 0.00 0.01 0.01 97 1014.9
20260505113819 38 358 0.0 0.0 0.00 0.01 0.01 97 1014.5
20260505113315 38 353 0.0 0.0 0.00 0.01 0.01 97 1014.6
20260505112811 38 355 0.0 0.0 0.00 0.01 0.01 97 1014.4
20260505112309 38 12 0.0 0.0 0.00 0.01 0.01 97 1014.4
20260505111805 38 358 0.0 0.0 0.00 0.01 0.01 97 1014.4
20260505111300 39 342 0.0 0.0 0.00 0.01 0.01 97 1014.4
20260505110756 39 358 0.0 0.0 0.00 0.01 0.01 97 1014.4
20260505110254 39 354 0.0 1.0 0.00 0.01 0.01 97 1014.6
20260505101728 39 289 1.0 1.0 0.00 0.01 0.01 97 1014.1
20260505101224 39 342 0.0 0.0 0.00 0.01 0.01 97 1014.3
20260505100721 39 17 0.0 0.0 0.00 0.01 0.01 97 1014.3
20260505100218 39 27 0.0 0.0 0.00 0.01 0.01 97 1014.4
20260505095713 39 40 0.0 0.0 0.00 0.01 0.01 97 1014.1
20260505095211 39 13 0.0 0.0 0.00 0.01 0.01 97 1014.1
20260505094706 39 12 0.0 0.0 0.00 0.01 0.01 96 1014.3
20260505094203 39 12 0.0 0.0 0.00 0.01 0.01 96 1014.5
20260505093659 39 12 0.0 0.0 0.00 0.01 0.01 96 1014.5
20260505093157 39 13 0.0 0.0 0.00 0.01 0.01 96 1014.3
20260505092654 40 14 0.0 0.0 0.00 0.01 0.01 96 1014.1
20260505092152 40 17 0.0 0.0 0.00 0.01 0.01 96 1014.3
20260505091649 40 330 1.0 1.0 0.00 0.01 0.01 96 1014.3
20260505091147 40 4 0.0 1.0 0.00 0.01 0.01 96 1014.4
20260505090644 40 44 0.0 0.0 0.00 0.01 0.01 96 1014.1
20260505090143 40 52 0.0 1.0 0.00 0.01 0.01 96 1014.4
20260505085639 40 54 0.0 0.0 0.00 0.01 0.01 96 1014.4
20260505085138 41 70 1.0 1.0 0.00 0.01 0.01 96 1014.5
20260505084635 41 53 0.0 0.0 0.00 0.01 0.01 96 1014.5
20260505084133 41 52 0.0 1.0 0.00 0.01 0.01 96 1014.8
20260505083631 41 53 0.0 1.0 0.00 0.01 0.01 96 1014.6
20260505083127 41 53 0.0 0.0 0.00 0.01 0.01 96 1015.0
20260505082623 41 52 0.0 0.0 0.00 0.01 0.01 96 1015.0
20260505082120 41 52 0.0 0.0 0.00 0.01 0.01 96 1015.3
20260505081616 41 52 0.0 0.0 0.00 0.01 0.01 96 1014.9
20260505081114 41 52 0.0 0.0 0.00 0.01 0.01 95 1015.0
20260505080610 41 52 0.0 0.0 0.00 0.01 0.01 95 1014.9
20260505080106 41 52 0.0 1.0 0.00 0.01 0.01 95 1015.3
20260505075602 41 52 0.0 1.0 0.00 0.01 0.01 95 1015.1
20260505075059 41 51 0.0 0.0 0.00 0.01 0.01 95 1015.4
20260505074556 41 51 0.0 0.0 0.00 0.01 0.01 95 1015.4
20260505074053 41 51 0.0 0.0 0.00 0.01 0.01 95 1015.4
20260505073550 41 51 0.0 0.0 0.00 0.01 0.01 95 1015.3
20260505073049 41 51 0.0 0.0 0.00 0.01 0.01 95 1015.6
20260505072544 41 50 0.0 0.0 0.00 0.01 0.01 95 1015.5
20260505072041 41 50 0.0 0.0 0.00 0.01 0.01 94 1015.8
20260505071536 41 51 0.0 0.0 0.00 0.01 0.01 94 1015.4
20260505071035 41 50 0.0 0.0 0.00 0.01 0.01 94 1015.6
20260505070532 41 51 0.0 0.0 0.00 0.01 0.01 94 1015.5
20260505070028 41 50 0.0 0.0 0.00 0.01 0.01 94 1015.5
20260505065523 41 30 0.0 0.0 0.00 0.01 0.01 94 1015.9
20260505065020 41 23 0.0 0.0 0.00 0.01 0.01 94 1015.8
20260505064517 41 23 0.0 0.0 0.00 0.01 0.01 93 1015.8
20260505064016 41 22 0.0 0.0 0.00 0.01 0.01 93 1015.5
20260505063513 41 22 0.0 0.0 0.00 0.01 0.01 93 1015.9
20260505063008 41 22 0.0 0.0 0.00 0.01 0.01 93 1015.5
20260505062505 41 22 0.0 0.0 0.00 0.01 0.01 93 1015.5
20260505062003 41 23 0.0 0.0 0.00 0.01 0.01 92 1015.5
20260505061500 41 21 0.0 0.0 0.00 0.01 0.01 92 1015.6
20260505060957 41 353 0.0 0.0 0.07 0.01 0.01 92 1015.6
20260505060455 42 6 0.0 0.0 0.07 0.01 0.01 91 1015.9
20260505055951 42 4 0.0 0.0 0.00 0.02 0.02 91 1016.0
20260505055447 42 356 1.0 1.0 0.00 0.02 0.02 90 1016.3
20260505054944 42 21 0.0 0.0 0.07 0.02 0.02 89 1016.1
20260505054441 42 28 0.0 1.0 0.07 0.02 0.02 89 1015.8
20260505053939 42 25 0.0 0.0 0.00 0.01 0.01 87 1016.0
20260505053436 42 48 0.0 1.0 0.00 0.01 0.01 87 1016.0
20260505052932 42 71 1.0 1.0 0.00 0.01 0.01 87 1016.0
20260505052429 42 345 0.0 0.0 0.00 0.01 0.01 86 1015.9
20260505051927 42 31 0.0 0.0 0.00 0.01 0.01 86 1016.0
20260505051424 42 347 0.0 0.0 0.00 0.01 0.01 86 1016.1
20260505050922 42 319 1.0 1.0 0.00 0.01 0.01 86 1015.9
20260505050420 42 7 0.0 1.0 0.00 0.01 0.01 86 1015.8
20260505041347 42 13 0.0 0.0 0.00 0.01 0.01 85 1015.1
20260505040844 42 136 2.0 2.0 0.00 0.01 0.01 85 1015.0
20260505040342 42 58 1.0 1.0 0.00 0.01 0.01 85 1014.9
20260505035838 43 99 1.0 1.0 0.00 0.01 0.01 85 1015.0
20260505035334 43 195 3.0 3.0 0.00 0.01 0.01 85 1014.9
20260505034832 43 109 3.0 3.0 0.00 0.01 0.01 84 1014.6
20260505034328 43 69 1.0 1.0 0.00 0.01 0.01 85 1014.6
20260505033826 43 154 1.0 2.0 0.00 0.01 0.01 85 1015.0
20260505033322 43 78 1.0 1.0 0.00 0.01 0.01 85 1015.1
20260505032821 43 39 0.0 1.0 0.00 0.01 0.01 86 1015.3
20260505032316 43 54 1.0 1.0 0.00 0.01 0.01 86 1015.1
20260505031814 43 34 0.0 0.0 0.00 0.01 0.01 86 1015.1
20260505031310 43 141 1.0 2.0 0.00 0.01 0.01 86 1015.0
20260505030808 43 60 1.0 1.0 0.00 0.01 0.01 86 1014.9
20260505030304 43 31 0.0 1.0 0.00 0.01 0.01 85 1015.1
20260505025759 43 49 2.0 2.0 0.00 0.01 0.01 86 1015.3
20260505025257 43 140 1.0 2.0 0.00 0.01 0.01 86 1015.1
20260505024755 43 34 0.0 0.0 0.00 0.01 0.01 87 1015.5
20260505024252 43 45 0.0 0.0 0.00 0.01 0.01 86 1015.1
20260505023749 43 45 0.0 0.0 0.00 0.01 0.01 86 1015.0
20260505023246 43 45 1.0 1.0 0.00 0.01 0.01 86 1015.0
20260505022744 43 40 0.0 1.0 0.00 0.01 0.01 86 1015.1
20260505022241 43 20 0.0 0.0 0.00 0.01 0.01 86 1014.9
20260505021737 43 31 0.0 0.0 0.00 0.01 0.01 86 1015.1
20260505021235 43 17 0.0 0.0 0.00 0.01 0.01 86 1015.1
20260505020730 43 20 0.0 0.0 0.00 0.01 0.01 86 1015.1
20260505020225 43 42 0.0 0.0 0.00 0.01 0.01 86 1015.1
20260505015723 43 46 1.0 1.0 0.00 0.01 0.01 85 1014.8
20260505015220 44 258 1.0 1.0 0.00 0.01 0.01 85 1015.1
20260505014717 44 312 1.0 1.0 0.05 0.01 0.01 83 1015.0
20260505014214 44 186 1.0 1.0 0.05 0.01 0.01 81 1014.8
20260505013711 45 168 2.0 2.0 0.00 0.00 0.00 78 1014.8
20260505013208 46 105 2.0 2.0 0.00 0.00 0.00 73 1015.0
20260505012706 49 122 4.0 7.0 0.00 0.00 0.00 63 1014.9
20260505012203 50 86 2.0 2.0 0.00 0.00 0.00 53 1014.6
20260505011659 51 127 2.0 2.0 0.00 0.00 0.00 51 1014.5
20260505011156 51 39 1.0 2.0 0.00 0.00 0.00 51 1014.8
20260505010651 51 124 2.0 2.0 0.00 0.00 0.00 51 1014.5
20260505010149 51 43 1.0 2.0 0.00 0.00 0.00 51 1014.1
20260505005644 51 36 7.0 9.0 0.00 0.00 0.00 51 1013.9
20260505005142 51 2 2.0 3.0 0.00 0.00 0.00 51 1013.9
20260505004638 51 349 1.0 2.0 0.00 0.00 0.00 50 1013.6
20260505004135 52 52 1.0 2.0 0.00 0.00 0.00 49 1013.4
20260505003632 52 69 3.0 3.0 0.00 0.00 0.00 48 1013.5
20260505003130 53 100 2.0 2.0 0.00 0.00 0.00 47 1013.1
20260505002626 53 49 1.0 1.0 0.00 0.00 0.00 44 1013.3
20260505002124 53 91 2.0 2.0 0.00 0.00 0.00 44 1013.3
20260505001621 54 114 3.0 3.0 0.00 0.00 0.00 43 1013.0
20260505001119 54 30 3.0 3.0 0.00 0.00 0.00 43 1012.8
20260505000615 54 310 2.0 2.0 0.00 0.00 0.00 41 1012.9
20260505000113 55 42 0.0 1.0 0.00 0.00 0.00 40 1013.0
20260504235609 55 150 1.0 3.0 0.00 0.00 0.00 39 1012.9
20260504235106 56 44 1.0 1.0 0.00 0.00 0.00 38 1012.8
20260504234603 57 117 1.0 2.0 0.00 0.00 0.00 37 1012.6
20260504234100 57 128 3.0 5.0 0.00 0.00 0.00 37 1013.0
20260504233555 57 93 1.0 2.0 0.00 0.00 0.00 38 1013.1
20260504233052 57 105 3.0 5.0 0.00 0.00 0.00 37 1012.9
20260504232549 57 152 3.0 5.0 0.00 0.00 0.00 38 1013.3
20260504232047 58 117 3.0 3.0 0.00 0.00 0.00 37 1013.3
20260504231543 57 147 3.0 5.0 0.00 0.00 0.00 37 1013.0
20260504231040 57 157 2.0 3.0 0.00 0.00 0.00 37 1012.9
20260504230536 57 131 1.0 1.0 0.00 0.00 0.00 37 1012.8
20260504230035 57 74 1.0 1.0 0.00 0.00 0.00 39 1013.0
20260504225532 57 54 1.0 1.0 0.00 0.00 0.00 39 1013.1
20260504225029 58 124 4.0 5.0 0.00 0.00 0.00 37 1013.0
20260504224525 58 250 3.0 3.0 0.00 0.00 0.00 35 1013.0
20260504224023 59 83 2.0 2.0 0.00 0.00 0.00 34 1012.8
20260504223519 60 340 2.0 2.0 0.00 0.00 0.00 32 1012.4
20260504223015 60 152 2.0 2.0 0.00 0.00 0.00 31 1012.6
20260504222512 60 34 1.0 1.0 0.00 0.00 0.00 30 1012.6
20260504222010 60 34 0.0 0.0 0.00 0.00 0.00 31 1012.8
20260504221507 61 85 2.0 2.0 0.00 0.00 0.00 30 1012.5
20260504221003 61 338 1.0 1.0 0.00 0.00 0.00 30 1012.5
20260504220500 61 14 1.0 2.0 0.00 0.00 0.00 30 1012.5
20260504215957 61 21 0.0 0.0 0.00 0.00 0.00 30 1012.5
20260504215453 62 53 0.0 1.0 0.00 0.00 0.00 31 1012.4
20260504214950 62 26 0.0 1.0 0.00 0.00 0.00 30 1012.5
20260504214446 62 353 1.0 1.0 0.00 0.00 0.00 28 1012.3
20260504213943 62 131 2.0 2.0 0.00 0.00 0.00 27 1012.1
20260504213439 62 52 1.0 2.0 0.00 0.00 0.00 27 1012.5
20260504212937 62 58 0.0 0.0 0.00 0.00 0.00 27 1012.3
20260504212432 62 86 2.0 3.0 0.00 0.00 0.00 26 1012.5
20260504211931 62 215 2.0 2.0 0.00 0.00 0.00 25 1012.5
20260504211426 62 213 3.0 3.0 0.00 0.00 0.00 26 1012.4
20260504210924 61 91 2.0 2.0 0.00 0.00 0.00 27 1012.5
20260504210421 62 80 2.0 2.0 0.00 0.00 0.00 27 1012.3
20260504205918 62 24 1.0 2.0 0.00 0.00 0.00 27 1012.3
20260504205416 62 142 2.0 2.0 0.00 0.00 0.00 27 1012.8
20260504204914 62 46 2.0 2.0 0.00 0.00 0.00 27 1012.4
20260504204412 63 16 4.0 6.0 0.00 0.00 0.00 27 1012.5
20260504203911 64 77 4.0 7.0 0.00 0.00 0.00 26 1012.4
20260504203408 64 235 2.0 2.0 0.00 0.00 0.00 26 1012.6
20260504202903 65 128 3.0 3.0 0.00 0.00 0.00 25 1012.8
20260504202401 68 220 2.0 3.0 0.00 0.00 0.00 23 1012.5
20260504201857 68 44 1.0 1.0 0.00 0.00 0.00 22 1012.5
20260504201354 67 326 1.0 1.0 0.00 0.00 0.00 23 1012.5
20260504200852 64 357 3.0 5.0 0.00 0.00 0.00 24 1012.8
20260504200348 63 246 2.0 2.0 0.00 0.00 0.00 25 1012.8
20260504195845 63 2 2.0 3.0 0.00 0.00 0.00 25 1012.8
20260504195340 63 314 3.0 5.0 0.00 0.00 0.00 24 1013.1
20260504194837 63 8 3.0 3.0 0.00 0.00 0.00 24 1013.0
20260504194333 63 19 2.0 2.0 0.00 0.00 0.00 25 1013.0
20260504193829 63 359 2.0 3.0 0.00 0.00 0.00 24 1012.9
20260504193327 63 75 3.0 3.0 0.00 0.00 0.00 21 1012.9
20260504192826 63 73 1.0 2.0 0.00 0.00 0.00 21 1013.0
20260504192323 63 42 2.0 2.0 0.00 0.00 0.00 21 1013.3
20260504191822 62 49 0.0 1.0 0.00 0.00 0.00 21 1013.0
20260504191319 62 303 1.0 1.0 0.00 0.00 0.00 20 1013.3
20260504190814 63 24 1.0 1.0 0.00 0.00 0.00 21 1013.1
20260504190310 63 346 1.0 2.0 0.00 0.00 0.00 20 1012.9
20260504185807 63 50 0.0 1.0 0.00 0.00 0.00 19 1013.3
20260504185305 65 24 3.0 5.0 0.00 0.00 0.00 19 1013.0
20260504184800 66 18 0.0 1.0 0.00 0.00 0.00 19 1013.3
20260504184256 66 310 2.0 3.0 0.00 0.00 0.00 19 1013.3
20260504183752 66 23 1.0 1.0 0.00 0.00 0.00 19 1013.3
20260504183249 66 239 1.0 1.0 0.00 0.00 0.00 19 1013.5
20260504182747 65 322 5.0 8.0 0.00 0.00 0.00 21 1013.8
20260504182244 64 20 2.0 2.0 0.00 0.00 0.00 21 1013.8
20260504181742 62 33 0.0 0.0 0.00 0.00 0.00 22 1013.9
20260504181239 62 316 2.0 2.0 0.00 0.00 0.00 22 1013.9
20260504180738 63 29 0.0 1.0 0.00 0.00 0.00 21 1014.0
20260504180236 63 50 2.0 3.0 0.00 0.00 0.00 22 1013.9
20260504175733 65 353 1.0 1.0 0.00 0.00 0.00 21 1014.1
20260504175230 65 333 2.0 2.0 0.00 0.00 0.00 21 1014.0
20260504174728 65 15 2.0 2.0 0.00 0.00 0.00 22 1013.9
20260504174226 62 309 2.0 2.0 0.00 0.00 0.00 25 1014.1
20260504173721 61 295 2.0 2.0 0.00 0.00 0.00 25 1014.5
20260504173219 62 27 3.0 3.0 0.00 0.00 0.00 24 1014.6
20260504172715 64 349 4.0 7.0 0.00 0.00 0.00 25 1014.4
20260504172212 64 294 3.0 3.0 0.00 0.00 0.00 27 1014.9
20260504171708 63 9 3.0 3.0 0.00 0.00 0.00 25 1014.6
20260504171206 63 41 5.0 7.0 0.00 0.00 0.00 27 1015.0
20260504170702 61 15 3.0 3.0 0.00 0.00 0.00 29 1014.9
20260504170200 60 85 3.0 5.0 0.00 0.00 0.00 30 1015.0
20260504160118 58 46 4.0 6.0 0.00 0.00 0.00 33 1015.6
20260504151045 56 357 4.0 7.0 0.00 0.00 0.00 35 1015.6
20260504150543 56 52 3.0 3.0 0.00 0.00 0.00 35 1015.6